CZ-3B DEB, 40164

Orbit data source: Space-Track

CZ-3B DEB, 40164 is space debris in HEO originally from a launch on Sat, 04 Sep 2010 UTC launched from the Xichang Space Center, China (XSC). Debris objects in space refer to the collection of defunct objects orbiting the Earth. Examples of debris include non-operational satellites, rocket bodies, and fragments generated from explosions, collisions, or faulty payload assembly.

Loading next visibility...
Identifier
40164, 2010-042R
Orbit
HEO
Country
Flag of CNCN / PRC
Related business
Manufacturer
CALT
Mission
Spacecraft
Bus & Motor
Unknown
Mass
Unknown
Launch date (UTC)
2010-09-04 (16 years ago)
Launch vehicle
Unknown
Launch site
Xichang Space Center, China (XSC)
Object type
Payload
Rocket body
Debris
Shape & HBR
Unknown shape, 0.3 m
Radar Cross Section
Medium (>0.1 m² and <1 m²)

Expand to show TLE details & history
Last TLE update: 4 weeks ago

TLE from 4 weeks ago
0 CZ-3B DEB
1 40164U 10042R   26147.42712231 -.00000224  00000-0  00000-0 0  9993
2 40164  26.6679 242.1894 7298926  12.1399   6.2905  1.89864905 86872
Epoch: 2026-05-27T10:15Z
TLE epoch observation values (Epoch: 2026-05-27T10:15:03.367Z)
Latitude
24.1655°
Longitude
-94.14888°
Altitude
2,532.464 km
Speed
8.662 km/s
True Right ascension
20h 18m 24s
True Declination
24° 03' 46"
Sunlit
Object was in daylight at epoch
Visualization orbit readout
Latitude
Unknown
Longitude
Unknown
Altitude
Unknown
Speed
Unknown
Apparent Right ascension
Unknown
Apparent Declination
Unknown
Sunlit
N/A
Visualization observer readout
Local Sidereal Time
21:38:22
Azimuth
Unknown
Elevation
Unknown
Doppler factor
Unknown
Orbital elements
Apogee altitude
41,284.696 km
Perigee altitude
1,063.992 km
Semi-major axis
27,552.481 km
Eccentricity
0.72989
Inclination
26.6679°
RAAN
242.1894°
Arg. of periapsis
12.1399°
True anomaly
52.10151°
Mean anomaly
6.2905°
Eccentric anomaly
21.86517°
Mean motion
0.47457 °/min
Orbital period
758.58 mins
BSTAR
0
Loading maneuver chart data...
Computing Atmospheric mass density...
Loading historical data...
Loading historical data...
Loading historical data...
Loading historical data...
Loading historical data...
Loading historical data...
Loading historical data...

Documentation

Showing up to 5 results
|